Tracking 31027 objects as of 19-Jul-2025
HD Live streaming from Space Station
objects crossing your sky now

STARLINK-31661

Track STARLINK-31661 now!
10-day predictions
STARLINK-31661 is classified as:


NORAD ID: 59735
Int'l Code: 2024-090F
Perigee: 489.7 km
Apogee: 490.7 km
Inclination: 43.0 °
Period: 94.3 minutes
Semi major axis: 6861 km
RCS: Unknown
Launch date: May 13, 2024
Source: United States (US)
Launch site: AIR FORCE EASTERN TEST RANGE (AFETR)
Your satellite tracking list
NUSAT-20 (GRACE)
Track 1 satellite(s)




NASA's NSSDC Master Catalog

Two Line Element Set (TLE):
1 59735U 24090F   25199.88115702 -.00001260  00000-0 -36275-4 0  9990
2 59735  43.0001  56.8750 0000762 279.1923  80.8843 15.27582632 67711
Source of the keplerian elements: AFSPC